Troy, MI

2:46 PM EST on February 20, 2018 (GMT -0500)
Troy

Weather History for KVLL - October, 2012

Change the Weather History Date:

Wednesday, October 10, 2012

  Actual Average (KDET) Record (KDET)
Temperature  
Mean Temperature 46 °F -  
Max Temperature 55 °F 62 °F 84 °F (1949)
Min Temperature 37 °F 46 °F 31 °F (1964)
Degree Days  
Heating Degree Days 18    
Moisture  
Dew Point 33 °F    
Average Humidity 61    
Maximum Humidity 87    
Minimum Humidity 41    
Precipitation  
Precipitation 0.00 in - - ()
Sea Level Pressure  
Sea Level Pressure 29.96 in    
Wind  
Wind Speed 11 mph (West)    
Max Wind Speed 20 mph    
Max Gust Speed 30 mph    
Visibility 10 miles    
Events Rain    
Averages and records for this station are not official NWS values.
T = Trace of Precipitation, MM = Missing Value Source: NWS Daily Summary

Daily Weather History Graph

Daily Weather History Graph

Search for Another Location

Airport or City:

Trip Planner

Search our weather history database for the weather conditions in past years. The results will help you decide how hot, cold, wet, or windy it might be!

Date:

Astronomy

Oct. 10, 2012 Rise Set
Actual Time 7:40 AM EDT 6:57 PM EDT
Civil Twilight 7:12 AM EDT 7:26 PM EDT
Nautical Twilight 6:39 AM EDT 7:58 PM EDT
Astronomical Twilight 6:06 AM EDT 8:31 PM EDT
Moon 2:09 AM EDT (10/10) 4:05 PM EDT (10/10)
Length of Visible Light 12h 13m
Length of Day
11h 17m
Waning Crescent, 27% of the Moon is Illuminated
Oct 10
Waning Crescent
Oct 15
New
Oct 21
First Quarter
Oct 29
Full
Nov 6
Last Quarter

Hourly Weather History & Observations

Time (EDT) Temp. Windchill Dew Point Humidity Pressure Visibility Wind Dir Wind Speed Gust Speed Precip Events Conditions
12:15 AM 55.4 °F - 35.1 °F 46% 29.85 in 10.0 mi SSW 10.4 mph 20.7 mph N/A   Clear
12:35 AM 54.9 °F - 35.6 °F 48% 29.85 in 10.0 mi SSW 13.8 mph 20.7 mph N/A   Clear
12:55 AM 54.5 °F - 35.8 °F 49% 29.85 in 10.0 mi SSW 10.4 mph 17.3 mph N/A   Clear
1:15 AM 53.8 °F - 36.0 °F 51% 29.84 in 10.0 mi SSW 9.2 mph - N/A   Clear
1:35 AM 53.6 °F - 36.1 °F 52% 29.83 in 10.0 mi SSW 9.2 mph - N/A   Clear
1:55 AM 53.6 °F - 36.5 °F 52% 29.82 in 10.0 mi SSW 10.4 mph - N/A   Mostly Cloudy
2:14 AM 53.8 °F - 36.7 °F 52% 29.82 in 10.0 mi SSW 11.5 mph 17.3 mph N/A   Mostly Cloudy
2:35 AM 53.8 °F - 36.7 °F 52% 29.81 in 10.0 mi SSW 13.8 mph - N/A   Mostly Cloudy
2:55 AM 53.8 °F - 36.9 °F 53% 29.81 in 10.0 mi SW 10.4 mph 17.3 mph N/A   Mostly Cloudy
3:15 AM 54.0 °F - 37.0 °F 53% 29.80 in 10.0 mi SW 15.0 mph 20.7 mph N/A   Overcast
3:35 AM 54.0 °F - 37.4 °F 54% 29.80 in 10.0 mi SW 11.5 mph 20.7 mph N/A   Overcast
3:54 AM 52.7 °F - 38.7 °F 59% 29.82 in 10.0 mi WNW 11.5 mph 23.0 mph N/A   Overcast
4:15 AM 50.2 °F - 39.4 °F 66% 29.83 in 10.0 mi WNW 17.3 mph 20.7 mph N/A Rain Rain
4:35 AM 47.3 °F - 41.5 °F 80% 29.84 in 10.0 mi West 9.2 mph 18.4 mph N/A Rain Light Rain
4:54 AM 46.2 °F 41.2 °F 41.2 °F 83% 29.85 in 10.0 mi WNW 10.4 mph - N/A Rain Light Rain
5:15 AM 45.5 °F 40.3 °F 41.2 °F 85% 29.85 in 7.0 mi WNW 10.4 mph 16.1 mph N/A Rain Light Rain
5:34 AM 44.6 °F 39.7 °F 40.1 °F 84% 29.85 in 10.0 mi NW 9.2 mph 16.1 mph N/A Rain Rain
5:55 AM 43.9 °F 40.5 °F 40.1 °F 87% 29.85 in 10.0 mi WNW 5.8 mph - N/A Rain Light Rain
6:15 AM 44.1 °F 41.5 °F 40.1 °F 86% 29.85 in 10.0 mi WNW 4.6 mph - N/A Rain Light Rain
6:34 AM 44.1 °F 41.5 °F 40.3 °F 87% 29.85 in 10.0 mi WNW 4.6 mph - N/A   Overcast
6:55 AM 44.2 °F 41.0 °F 40.6 °F 87% 29.87 in 10.0 mi WSW 5.8 mph - N/A   Overcast
7:15 AM 44.1 °F 38.6 °F 39.4 °F 84% 29.87 in 10.0 mi West 10.4 mph 16.1 mph N/A   Mostly Cloudy
7:34 AM 43.7 °F 39.7 °F 38.7 °F 82% 29.88 in 10.0 mi West 6.9 mph - N/A   Scattered Clouds
7:55 AM 43.2 °F 40.5 °F 39.2 °F 86% 29.88 in 10.0 mi West 4.6 mph - N/A   Mostly Cloudy
8:14 AM 43.0 °F 40.3 °F 39.4 °F 87% 29.89 in 10.0 mi WSW 4.6 mph - N/A   Overcast
8:55 AM 43.7 °F 39.7 °F 39.6 °F 85% 29.91 in 10.0 mi WSW 6.9 mph - N/A   Overcast
9:35 AM 44.1 °F 40.1 °F 39.7 °F 85% 29.92 in 10.0 mi SW 6.9 mph - N/A   Overcast
9:55 AM 44.6 °F 38.8 °F 40.1 °F 84% 29.92 in 10.0 mi West 11.5 mph - N/A   Overcast
10:15 AM 45.9 °F 40.4 °F 40.3 °F 81% 29.93 in 10.0 mi WSW 11.5 mph - N/A   Overcast
10:35 AM 46.8 °F - 40.1 °F 78% 29.93 in 10.0 mi West 11.5 mph 16.1 mph N/A   Overcast
10:55 AM 47.8 °F - 39.7 °F 74% 29.93 in 10.0 mi West 10.4 mph - N/A   Mostly Cloudy
11:15 AM 47.5 °F - 38.7 °F 71% 29.94 in 10.0 mi West 8.1 mph - N/A   Overcast
11:35 AM 49.1 °F - 38.1 °F 66% 29.94 in 10.0 mi West 11.5 mph - N/A   Mostly Cloudy
11:54 AM 48.4 °F - 36.0 °F 62% 29.95 in 10.0 mi West 11.5 mph 23.0 mph N/A   Mostly Cloudy
12:15 PM 48.6 °F - 36.3 °F 63% 29.95 in 10.0 mi West 11.5 mph - N/A   Overcast
12:54 PM 49.3 °F - 34.5 °F 57% 29.96 in 10.0 mi West 13.8 mph 18.4 mph N/A   Overcast
1:15 PM 50.2 °F - 34.0 °F 54% 29.95 in 10.0 mi West 10.4 mph 17.3 mph N/A   Overcast
1:34 PM 50.2 °F - 32.2 °F 50% 29.95 in 10.0 mi West 8.1 mph 24.2 mph N/A   Overcast
1:55 PM 49.5 °F - 32.2 °F 51% 29.95 in 10.0 mi WNW 18.4 mph 21.9 mph N/A   Overcast
2:14 PM 49.5 °F - 32.0 °F 51% 29.95 in 10.0 mi West 12.7 mph 25.3 mph N/A   Overcast
2:35 PM 48.7 °F - 32.9 °F 54% 29.95 in 10.0 mi West 11.5 mph 18.4 mph N/A   Overcast
2:55 PM 48.7 °F - 34.2 °F 57% 29.97 in 10.0 mi WNW 15.0 mph 23.0 mph N/A Rain Light Rain
3:14 PM 45.0 °F 38.5 °F 35.4 °F 69% 29.98 in 10.0 mi WNW 13.8 mph 23.0 mph N/A Rain Light Rain
3:35 PM 46.8 °F - 34.7 °F 63% 29.98 in 10.0 mi West 15.0 mph 24.2 mph N/A   Overcast
3:54 PM 47.3 °F - 32.7 °F 57% 30.00 in 10.0 mi WNW 17.3 mph 25.3 mph N/A   Overcast
4:15 PM 48.2 °F - 30.6 °F 51% 29.99 in 10.0 mi West 15.0 mph 25.3 mph N/A   Overcast
4:35 PM 46.4 °F 39.5 °F 31.1 °F 55% 30.01 in 10.0 mi WNW 17.3 mph 28.8 mph N/A   Overcast
4:54 PM 46.4 °F 40.1 °F 27.9 °F 48% 30.02 in 10.0 mi West 15.0 mph 26.5 mph N/A   Overcast
5:15 PM 46.8 °F - 26.2 °F 45% 30.02 in 10.0 mi West 18.4 mph 28.8 mph N/A   Overcast
5:34 PM 46.8 °F - 24.8 °F 42% 30.03 in 10.0 mi West 19.6 mph 29.9 mph N/A   Overcast
5:55 PM 46.2 °F 39.3 °F 24.6 °F 43% 30.04 in 10.0 mi WNW 17.3 mph 24.2 mph N/A   Overcast
6:15 PM 45.9 °F 38.5 °F 23.2 °F 41% 30.05 in 10.0 mi WNW 18.4 mph 26.5 mph N/A   Overcast
6:34 PM 45.5 °F 41.3 °F 23.7 °F 42% 30.05 in 10.0 mi WNW 8.1 mph 20.7 mph N/A   Overcast
6:55 PM 45.5 °F 42.5 °F 23.9 °F 43% 30.06 in 10.0 mi West 5.8 mph 16.1 mph N/A   Overcast
7:15 PM 44.8 °F 38.0 °F 23.7 °F 44% 30.08 in 10.0 mi West 15.0 mph 21.9 mph N/A   Mostly Cloudy
7:34 PM 44.1 °F 39.5 °F 24.6 °F 46% 30.09 in 10.0 mi West 8.1 mph - N/A   Scattered Clouds
7:55 PM 43.9 °F 37.9 °F 24.4 °F 46% 30.10 in 10.0 mi West 11.5 mph 19.6 mph N/A   Overcast
8:15 PM 43.9 °F 37.9 °F 24.6 °F 47% 30.11 in 10.0 mi West 11.5 mph 20.7 mph N/A   Overcast
8:34 PM 43.3 °F 36.5 °F 24.3 °F 47% 30.12 in 10.0 mi West 13.8 mph 18.4 mph N/A   Mostly Cloudy
8:55 PM 42.8 °F 37.5 °F 24.8 °F 49% 30.13 in 10.0 mi West 9.2 mph 17.3 mph N/A   Scattered Clouds
9:15 PM 42.6 °F 36.8 °F 25.0 °F 50% 30.14 in 10.0 mi West 10.4 mph 17.3 mph N/A   Scattered Clouds
9:34 PM 42.3 °F 37.3 °F 25.3 °F 51% 30.15 in 10.0 mi West 8.1 mph 16.1 mph N/A   Scattered Clouds
9:55 PM 41.7 °F 38.0 °F 25.7 °F 53% 30.15 in 10.0 mi WSW 5.8 mph - N/A   Clear
10:15 PM 41.0 °F 37.1 °F 26.1 °F 55% 30.15 in 10.0 mi WSW 5.8 mph - N/A   Clear
10:34 PM 40.3 °F 37.1 °F 26.1 °F 57% 30.15 in 10.0 mi West 4.6 mph - N/A   Clear
10:55 PM 39.4 °F 37.2 °F 26.2 °F 59% 30.16 in 10.0 mi WSW 3.5 mph - N/A   Clear
11:14 PM 38.7 °F 35.2 °F 26.4 °F 61% 30.16 in 10.0 mi WSW 4.6 mph - N/A   Clear
11:35 PM 38.3 °F 33.9 °F 26.6 °F 63% 30.17 in 10.0 mi SW 5.8 mph - N/A   Clear
11:54 PM 37.9 °F 35.5 °F 26.6 °F 64% 30.18 in 10.0 mi SW 3.5 mph - N/A   Clear